Vertical_Velocity
1 -2 1 8 4 -0 -1 -1 -0 1 1 -0 1 -2 4 -2 -3 3 -6 3 0 -1 -2 1 3 1 -0 3 3 -3 8 0 -5 1 -2 2 0 -1 -2 -2 0 1 4 1 -2
-4 -2 0 0 -0 6 3 1 -1 -1 0 1 -1 0 -0 3 -2 -8 5 -2 6 1 1 -3 1 0 4 3 1 6 5 -6 -1 -1 -0 -1 1 -3 2 2 2 1 -1 3 1
-2 -0 -2 -4 0 -2 1 6 1 1 -3 -1 -1 -1 -0 1 -2 -2 0 -1 0 8 2 2 4 -2 6 2 -0 -4 -2 -4 -2 -0 -0 -0 3 1 0 3 -5 -7 -2 -0 -1
3 -4 -1 -2 -2 0 -4 2 3 3 -1 -1 -1 -0 -1 -0 5 0 -1 3 -4 4 4 -2 5 6 3 1 -1 6 -1 -1 -1 -0 0 -0 1 1 1 1 2 1 2 1 -2
-1 5 1 0 -1 -1 -0 0 -1 3 4 -2 -0 1 -1 3 -12 0 2 -1 6 0 3 -2 1 1 -1 -1 3 7 -2 0 0 -0 -0 -1 -1 -2 -3 0 -1 2 2 1 2
1 -1 6 5 -1 -3 -1 1 -2 1 2 5 -1 -3 5 5 -3 -0 1 6 4 4 -1 3 -4 -5 1 -1 3 -3 -1 -2 1 -0 1 1 -1 2 -2 1 -0 1 0 1 1
-2 -5 -1 -2 -2 8 -1 -2 -0 -2 1 4 5 6 4 -31 2 1 3 5 1 1 2 -3 2 -0 -1 2 -5 -0 2 2 0 -2 -1 1 6 -3 2 -1 2 1 1 2 -0
-0 -1 0 -1 -4 1 2 6 -4 -0 2 -1 10 10 -8 -12 2 -4 -4 8 5 3 3 6 1 6 1 -1 4 5 8 7 1 2 -2 6 -12 -3 3 3 -0 -0 1 1 -1
-3 -2 -1 -4 2 -1 -1 -0 2 -3 1 0 10 1 -12 -3 -2 3 5 -4 2 4 2 1 4 1 5 3 6 5 -0 3 4 -1 0 7 -6 -2 -2 2 -1 1 0 0 4
0 -0 -8 -1 1 -1 5 0 -5 0 -7 7 10 22 -5 -6 2 1 2 3 -4 3 4 5 3 1 5 7 -6 -3 3 1 -3 0 6 3 -6 -0 -1 2 -3 0 1 1 1
3 0 -3 3 -4 1 -4 -9 -1 5 14 -25 -9 -13 -3 4 2 3 8 3 4 8 2 1 9 -4 -10 -6 -5 1 2 -0 -0 -0 4 -4 -1 -6 -3 2 1 -0 0 0 -0
-0 1 -3 2 3 -4 5 -1 -18 7 -5 -1 -6 6 10 -2 5 3 7 0 6 -2 5 9 -3 -10 -0 2 3 2 0 -1 1 0 7 -0 -7 -5 -0 -7 -4 -3 -0 -1 3
-3 -5 -2 4 -1 -2 -2 -7 10 13 5 -14 -13 -1 -16 11 -10 -0 0 -2 -3 7 0 -4 -4 3 3 3 7 -0 -1 -0 1 1 1 3 -5 2 -4 5 4 1 -3 3 -3
-2 0 -3 6 1 3 -1 7 13 16 7 -4 0 -18 6 3 -0 -3 -6 -16 6 -8 -1 -5 -5 -1 3 -0 2 6 -3 1 1 4 3 5 -5 -0 -0 -1 3 -0 0 -3 -1
1 2 1 16 1 -2 -10 10 1 -9 11 3 3 7 -0 -6 -7 5 -3 10 -4 -2 7 -11 2 3 5 -17 1 -17 1 -2 0 1 6 2 8 -6 1 1 -3 -2 -1 -1 -3
-3 -1 3 -2 5 -7 6 7 -1 8 -3 5 -0 -0 9 12 1 7 1 20 -2 1 2 -3 -0 2 -9 -2 -3 -1 0 2 1 2 7 -10 7 -7 -1 -6 -1 -0 -1 -1 1
-4 1 6 3 -8 -1 6 -1 10 5 1 0 -1 2 -1 1 8 4 2 11 -6 5 4 4 -1 2 -2 1 7 9 8 3 8 7 -5 0 10 -18 -2 -1 -1 -1 -2 -1 1
-1 3 -5 4 6 9 3 5 8 -2 -3 0 1 3 -2 -3 -0 -0 5 5 8 6 2 -2 14 -1 0 -7 -14 -7 -9 -4 -5 -2 -2 1 -4 -13 -2 -0 -1 0 -2 1 3
-1 -6 -0 2 -1 4 4 5 -1 1 0 1 -2 4 3 5 -9 3 -0 -4 -7 -3 -3 3 3 6 1 -0 -16 -3 8 -4 0 1 3 -4 -3 -5 0 0 1 1 1 -0 1
-0 -4 3 -0 1 3 5 -2 0 -0 0 1 2 4 1 -0 4 8 1 -10 -4 -4 1 -1 3 -1 2 1 3 -1 -10 8 0 1 1 2 -1 -5 1 -0 1 2 0 0 1
-3 -0 1 -2 6 1 1 -1 -0 -3 4 3 -0 1 0 2 -2 -1 -7 2 1 0 2 -1 3 7 5 1 -9 5 5 4 1 3 1 0 -2 1 -0 -0 -2 -1 -0 -1 -1
-3 2 -1 -3 3 -0 1 -2 1 -3 2 0 2 2 0 -0 0 2 -6 -3 -1 -5 -1 -1 -0 -0 -14 3 1 -2 -3 -3 2 -2 1 3 2 -0 -0 -0 -0 0 0 1 0
-1 -2 -2 -3 2 -0 -2 -2 1 1 -2 0 -0 2 1 -0 1 -1 -0 -0 -1 -0 -8 -1 3 2 9 5 3 2 -1 -1 0 1 -4 3 -0 0 -0 1 1 -0 1 1 1
-2 0 -3 -1 -1 4 1 -2 -1 -0 -1 0 -1 1 2 1 1 -1 1 1 0 -1 1 -1 0 -3 -13 -16 -7 1 1 0 1 6 -6 -7 -4 0 1 0 2 2 1 0 -0
-2 0 2 -1 -1 0 3 2 -0 -0 1 1 -0 1 -2 0 1 0 0 2 2 -1 2 -6 -1 4 -3 -0 1 -1 -2 0 1 -10 5 -12 -1 -6 -1 -2 -2 -2 2 1 1
-2 1 1 -1 -1 3 -2 -1 1 -5 3 -1 3 -0 0 -0 -3 -1 -3 1 -5 5 0 1 -3 3 0 0 1 1 -0 0 -0 -0 4 3 -4 -2 0 1 3 -1 -0 1 0
-1 -0 4 -2 -1 3 2 -0 -2 1 -4 -2 -0 2 1 -5 -0 -1 -2 -2 -2 -5 -0 -1 0 3 -6 -0 1 6 -12 -3 -4 0 -6 1 -21 -0 2 1 -2 -0 -1 -2 -1
Height
1496 1494 1493 1490 1489 1486 1484 1481 1478 1476 1473 1471 1469 1467 1465 1463 1462 1462 1460 1458 1457 1459 1463 1468 1470 1473 1476 1478 1479 1479 1473 1465 1464 1466 1460 1468 1469 1475 1475 1477 1481 1483 1484 1486 1488
1492 1490 1488 1486 1485 1483 1481 1479 1477 1474 1471 1469 1466 1465 1463 1461 1458 1456 1455 1454 1455 1457 1461 1465 1469 1471 1473 1474 1476 1473 1468 1463 1465 1463 1463 1467 1468 1473 1475 1476 1479 1481 1482 1485 1486
1488 1485 1482 1482 1481 1479 1478 1476 1474 1472 1469 1467 1464 1463 1461 1459 1456 1450 1449 1450 1454 1456 1460 1464 1468 1470 1471 1472 1471 1468 1464 1463 1467 1467 1468 1467 1470 1472 1470 1473 1471 1474 1479 1481 1485
1485 1483 1479 1477 1475 1474 1473 1472 1471 1469 1466 1465 1462 1460 1459 1458 1456 1449 1448 1448 1452 1456 1458 1461 1465 1467 1467 1466 1466 1467 1466 1467 1467 1468 1469 1468 1470 1470 1470 1468 1471 1473 1475 1478 1483
1483 1481 1478 1474 1472 1469 1467 1467 1466 1465 1463 1462 1460 1458 1457 1456 1450 1448 1448 1449 1452 1454 1457 1456 1461 1462 1462 1463 1467 1464 1465 1466 1467 1468 1468 1469 1469 1468 1469 1470 1470 1472 1474 1477 1481
1478 1476 1474 1471 1468 1465 1463 1460 1460 1460 1459 1458 1457 1456 1456 1454 1446 1446 1448 1449 1450 1453 1455 1457 1456 1460 1460 1460 1461 1461 1462 1463 1465 1466 1467 1467 1467 1470 1465 1468 1469 1471 1473 1475 1478
1473 1471 1469 1467 1463 1461 1459 1457 1454 1454 1454 1454 1453 1452 1449 1444 1443 1444 1446 1448 1448 1451 1452 1454 1456 1457 1458 1458 1459 1459 1460 1461 1462 1464 1464 1467 1464 1461 1463 1465 1467 1470 1472 1474 1477
1468 1465 1463 1460 1458 1455 1453 1451 1450 1449 1448 1449 1449 1448 1440 1437 1437 1439 1442 1444 1446 1448 1451 1452 1454 1456 1456 1458 1458 1458 1459 1456 1453 1460 1462 1464 1452 1451 1458 1462 1463 1467 1469 1471 1474
1463 1460 1456 1454 1452 1450 1448 1445 1443 1444 1442 1443 1444 1443 1435 1430 1430 1433 1436 1441 1444 1447 1449 1450 1453 1453 1455 1452 1454 1454 1444 1449 1450 1455 1456 1459 1450 1449 1455 1458 1459 1461 1465 1468 1472
1458 1454 1451 1449 1446 1444 1442 1438 1436 1437 1437 1438 1438 1441 1430 1424 1423 1425 1431 1436 1440 1444 1448 1449 1451 1449 1449 1449 1441 1440 1448 1451 1446 1450 1455 1455 1449 1449 1453 1454 1453 1456 1461 1464 1467
1452 1449 1446 1443 1441 1438 1437 1435 1435 1431 1428 1422 1420 1419 1418 1420 1422 1423 1426 1432 1437 1440 1439 1443 1442 1439 1439 1439 1438 1441 1443 1445 1447 1451 1452 1448 1443 1441 1446 1450 1450 1451 1454 1458 1462
1450 1444 1440 1437 1434 1433 1432 1432 1431 1430 1422 1417 1415 1417 1417 1417 1420 1420 1425 1428 1430 1429 1434 1443 1430 1430 1434 1438 1440 1446 1443 1443 1448 1452 1452 1442 1439 1437 1437 1438 1442 1445 1447 1452 1458
1441 1439 1435 1432 1428 1426 1426 1425 1426 1425 1419 1410 1408 1407 1411 1417 1415 1416 1420 1422 1423 1424 1426 1424 1426 1430 1435 1437 1440 1440 1441 1442 1444 1450 1450 1447 1426 1423 1422 1427 1432 1435 1440 1445 1449
1435 1431 1429 1428 1425 1421 1420 1421 1420 1421 1409 1398 1397 1396 1402 1409 1407 1411 1413 1419 1422 1420 1425 1424 1423 1429 1432 1431 1435 1437 1440 1441 1444 1446 1438 1447 1420 1409 1410 1418 1421 1424 1430 1436 1442
1429 1425 1422 1421 1420 1419 1419 1418 1417 1419 1395 1378 1386 1386 1389 1393 1395 1399 1408 1414 1414 1415 1422 1417 1421 1425 1426 1425 1431 1431 1435 1442 1443 1444 1446 1439 1439 1400 1416 1413 1410 1414 1420 1427 1434
1422 1419 1417 1415 1414 1415 1414 1414 1416 1415 1389 1378 1380 1379 1382 1386 1390 1398 1403 1409 1412 1414 1418 1413 1421 1421 1421 1426 1430 1437 1442 1446 1447 1443 1442 1428 1428 1399 1395 1397 1398 1404 1414 1421 1428
1417 1414 1413 1412 1410 1410 1411 1412 1409 1398 1389 1381 1376 1377 1377 1380 1387 1392 1397 1400 1404 1414 1417 1416 1417 1420 1423 1428 1432 1432 1433 1443 1448 1447 1430 1437 1430 1396 1390 1399 1400 1403 1409 1415 1423
1413 1410 1408 1407 1407 1408 1409 1410 1402 1385 1379 1379 1377 1377 1377 1380 1384 1390 1391 1397 1397 1398 1398 1410 1416 1415 1417 1415 1419 1427 1422 1421 1422 1425 1412 1444 1417 1390 1390 1397 1398 1402 1405 1410 1417
1410 1407 1404 1403 1403 1404 1408 1399 1391 1383 1384 1382 1377 1373 1375 1377 1383 1390 1386 1387 1391 1393 1398 1402 1402 1410 1414 1417 1416 1425 1421 1420 1422 1429 1415 1406 1405 1390 1387 1392 1397 1399 1402 1406 1413
1408 1405 1402 1401 1401 1403 1404 1394 1390 1390 1388 1388 1383 1375 1365 1372 1378 1381 1380 1377 1383 1391 1395 1399 1405 1413 1417 1417 1419 1412 1413 1423 1424 1418 1405 1398 1398 1372 1380 1385 1392 1397 1400 1405 1411
1407 1405 1402 1401 1402 1403 1399 1392 1388 1385 1385 1384 1380 1377 1374 1371 1375 1381 1375 1380 1378 1385 1394 1398 1400 1414 1414 1406 1401 1414 1410 1412 1408 1411 1385 1379 1376 1378 1382 1385 1386 1391 1397 1403 1409
1407 1405 1402 1402 1404 1400 1394 1393 1388 1385 1383 1382 1381 1378 1376 1380 1382 1377 1379 1372 1379 1384 1391 1402 1408 1405 1401 1410 1411 1400 1401 1404 1400 1412 1417 1401 1374 1386 1387 1388 1388 1390 1398 1403 1409
1406 1405 1402 1402 1400 1396 1392 1390 1387 1384 1382 1382 1381 1380 1376 1373 1379 1378 1376 1379 1380 1383 1385 1400 1407 1410 1410 1411 1413 1406 1401 1399 1409 1403 1400 1390 1374 1387 1389 1388 1390 1392 1397 1402 1408
1407 1405 1403 1402 1401 1399 1391 1387 1386 1382 1382 1381 1380 1380 1378 1375 1373 1379 1377 1381 1383 1385 1388 1392 1398 1392 1385 1379 1389 1405 1403 1407 1400 1394 1387 1387 1376 1377 1386 1387 1390 1393 1398 1403 1408
1408 1407 1406 1401 1398 1397 1396 1390 1384 1381 1379 1378 1377 1377 1376 1377 1377 1379 1378 1384 1387 1388 1390 1393 1393 1391 1386 1388 1388 1386 1391 1402 1402 1389 1385 1381 1387 1375 1382 1384 1389 1393 1397 1402 1408
1409 1408 1405 1402 1398 1394 1389 1385 1381 1378 1380 1377 1378 1374 1373 1376 1370 1375 1381 1386 1380 1388 1391 1394 1384 1385 1387 1390 1388 1386 1383 1390 1386 1380 1382 1379 1378 1377 1385 1386 1390 1393 1397 1400 1406
1407 1407 1406 1400 1398 1394 1388 1386 1380 1380 1376 1376 1376 1376 1378 1374 1373 1373 1373 1376 1378 1383 1385 1389 1386 1385 1376 1384 1391 1386 1371 1375 1376 1375 1375 1377 1376 1383 1385 1385 1386 1390 1394 1398 1404